Dewpoint
57 57 57 57 58 57 57 56 57 56 57 58 58 57 58 56 55 56 55 56 55 55 54 52 52 52 52 51 52 54 54 54 54 54 54 53 53 52 50 48 46 48 48 49 48 49 47 46 47 48 51 49 48 47 45 45 46 46 44 40 40 45 44 43 41 41 41 38 35 29 34 36 29 33 33 38 40 38 40 40 41 40 39 39 41
56 56 57 58 58 58 57 57 56 56 58 58 58 57 58 57 57 55 55 55 55 54 54 55 53 52 51 51 52 51 52 52 53 53 52 53 54 54 52 49 47 48 50 46 47 48 50 46 45 48 49 45 48 40 41 41 39 36 36 35 32 39 44 38 38 40 38 39 33 31 32 37 29 32 39 40 40 39 32 36 35 34 36 37 36
56 56 57 58 58 58 57 56 56 57 57 57 57 57 58 58 56 57 56 55 54 54 54 55 53 52 52 53 51 52 51 52 54 53 53 53 51 53 54 51 50 49 48 47 44 46 47 47 46 49 50 48 49 47 47 42 39 36 38 34 34 35 34 33 35 36 36 33 37 30 35 36 36 29 32 36 37 33 33 35 34 34 34 37 35
56 56 56 57 57 57 57 57 57 57 57 58 58 58 58 58 57 57 56 56 54 55 54 53 54 54 54 52 52 52 52 52 53 52 51 51 51 51 51 52 51 50 49 47 44 47 48 48 48 49 48 48 46 46 45 45 44 39 40 40 39 36 40 41 37 36 36 33 35 26 32 37 33 32 32 33 35 33 33 35 34 34 36 33 33
56 55 55 57 58 58 59 58 58 58 58 58 59 58 59 58 57 56 57 56 55 55 54 54 54 53 55 53 53 53 53 53 53 53 54 54 53 53 52 51 52 51 51 50 51 49 49 49 48 47 48 47 48 45 44 46 40 40 37 34 33 36 39 36 34 34 36 36 37 36 37 32 31 35 32 31 32 33 34 34 33 34 39 39 35
57 57 56 56 56 57 58 58 58 58 58 58 58 58 59 59 58 58 56 56 56 56 55 54 54 53 53 53 53 53 54 55 54 54 54 54 55 54 54 54 53 52 52 55 51 53 52 49 49 48 47 47 47 48 47 46 43 41 37 31 30 37 40 38 38 38 36 34 37 37 40 37 36 37 34 37 37 35 35 36 37 37 39 40 38
57 57 56 56 56 57 57 57 58 58 58 58 59 57 57 59 57 57 57 57 56 57 57 56 57 55 55 55 55 55 56 56 56 56 55 55 55 54 55 54 53 53 52 51 53 52 52 52 51 51 48 48 49 48 48 48 46 43 41 42 35 37 37 36 35 37 38 38 37 39 38 38 40 37 32 36 36 35 37 37 37 34 39 39 38
57 56 56 57 56 57 57 58 58 58 58 58 57 57 58 58 58 59 58 57 57 55 56 56 57 56 56 56 56 57 56 56 56 56 55 56 56 56 55 55 54 53 53 51 52 54 53 52 52 52 51 52 51 49 49 47 46 43 41 40 41 39 38 38 38 36 38 39 37 37 38 38 39 39 34 37 38 37 36 37 36 37 37 39 40
56 56 56 56 56 57 58 57 58 58 57 57 57 57 57 58 58 58 57 58 58 57 57 56 56 56 56 57 56 57 57 57 57 57 56 55 56 56 55 54 54 54 53 52 52 51 52 52 52 51 53 52 49 50 48 48 46 43 41 41 40 40 39 38 38 36 38 39 39 39 39 39 39 40 38 38 38 36 39 40 39 38 37 37 35
56 56 55 56 56 56 56 57 56 57 57 57 56 57 57 58 58 57 57 56 56 57 57 57 56 56 56 56 57 59 57 56 55 50 51 54 55 54 55 55 54 54 53 53 53 52 51 53 54 52 50 49 47 45 43 42 44 45 42 41 39 40 40 39 38 38 39 38 38 38 39 40 38 40 40 41 41 42 41 39 37 35 36 34 34
56 55 55 55 55 55 55 55 55 55 56 57 57 57 56 57 57 57 57 57 57 57 57 55 56 57 56 56 56 57 57 56 49 46 45 44 52 56 56 56 55 54 54 54 53 54 54 51 52 53 50 48 48 44 41 41 40 38 40 40 41 42 41 41 39 40 37 38 39 39 38 39 40 39 40 38 42 40 38 38 37 36 33 31 28
54 54 54 54 54 53 54 54 54 55 55 55 55 56 56 56 56 56 56 56 57 57 58 56 56 56 57 56 57 57 57 49 44 44 43 42 45 56 57 57 56 55 55 54 53 54 54 54 53 53 53 52 50 50 45 41 39 37 37 37 37 38 39 43 41 40 40 39 39 39 38 39 38 39 39 40 39 38 40 38 38 35 34 32 31
48 50 49 50 52 54 54 54 54 54 54 55 55 56 55 55 55 55 56 56 56 56 56 56 56 56 56 55 56 56 56 39 39 39 40 40 40 46 55 57 56 56 56 55 55 54 54 54 54 54 52 52 50 49 49 47 38 37 38 38 38 37 35 35 37 47 41 40 39 40 37 37 37 39 42 41 41 39 38 33 36 35 35 33 32
39 38 38 40 45 50 53 54 54 54 55 55 55 54 54 54 55 55 55 55 55 55 55 55 54 55 55 56 57 55 54 40 38 38 38 38 39 41 55 57 57 57 56 56 56 56 55 55 54 54 54 53 52 51 50 47 43 40 39 40 39 40 38 36 36 36 40 42 40 38 41 39 38 41 42 41 38 35 35 34 36 34 35 34 36
39 40 41 40 40 42 46 48 51 52 52 53 55 55 55 55 54 54 55 55 54 54 54 54 54 54 54 54 53 54 51 38 37 37 38 39 38 38 54 55 56 57 56 56 55 55 55 55 55 54 54 53 52 50 48 46 43 42 41 41 41 42 43 42 42 41 40 41 40 40 41 41 41 41 40 39 38 37 37 37 37 37 36 38 37
40 42 41 40 40 40 40 42 44 45 47 49 52 53 54 54 53 51 51 51 51 50 50 51 50 50 51 51 51 51 49 37 37 37 37 38 38 51 53 54 55 55 55 53 52 52 52 53 53 53 52 51 44 39 42 44 41 40 41 42 42 42 41 38 38 39 42 42 41 40 40 43 38 40 39 37 37 38 37 36 37 37 35 32 30
39 41 41 41 41 40 41 40 41 41 42 45 46 48 48 48 49 48 48 48 47 48 49 50 50 50 50 50 50 50 51 41 37 37 38 38 44 52 52 52 53 53 51 49 48 49 49 49 50 49 50 49 39 35 36 38 41 41 41 42 42 41 39 39 36 36 36 36 36 36 36 36 36 35 35 35 37 38 35 33 33 34 31 30 31
39 38 38 39 41 40 41 40 42 43 41 41 44 46 45 46 47 46 46 46 47 48 47 47 48 49 50 50 51 49 50 42 37 37 38 38 46 53 53 53 52 49 47 46 45 45 44 44 46 48 47 46 36 36 36 39 42 42 42 42 41 40 40 39 38 37 36 36 35 34 35 34 34 35 36 36 36 37 35 31 34 32 32 31 29
38 37 39 39 40 41 41 43 42 43 40 42 44 43 44 45 46 45 45 46 47 46 45 45 46 45 46 48 43 49 49 43 37 37 38 39 48 53 52 51 49 47 46 44 43 43 42 40 40 41 43 40 36 36 38 41 43 43 42 42 40 39 38 38 37 35 35 35 35 37 36 35 36 38 39 36 36 36 37 35 33 31 29 29 30
37 39 39 40 41 40 42 42 44 44 42 46 46 46 46 46 46 45 45 45 45 45 45 45 45 44 43 44 46 48 49 47 42 37 38 39 41 50 50 49 48 46 45 42 41 41 40 38 36 34 34 34 34 34 35 37 42 42 41 39 38 36 35 35 35 35 35 34 35 36 36 37 37 38 37 38 40 39 37 36 34 32 31 29 30
39 39 39 39 38 39 40 42 43 44 44 44 46 45 45 46 47 46 46 46 48 45 45 45 44 42 41 42 43 45 46 47 44 37 39 39 39 43 49 49 47 45 43 40 40 39 37 35 34 34 33 33 33 33 33 34 36 39 38 37 38 37 35 35 36 35 35 36 36 35 35 34 34 34 33 33 32 32 33 34 34 34 33 31 29
39 38 38 37 39 40 41 43 44 44 44 44 45 45 45 46 46 46 45 46 47 46 45 43 42 40 39 40 41 41 39 40 44 38 37 38 38 40 47 47 45 44 42 40 38 38 37 35 34 34 33 33 33 33 34 34 34 35 36 33 34 34 36 35 35 35 35 34 32 32 32 31 31 32 32 32 31 32 33 34 34 35 34 32 29
38 38 38 39 40 40 41 43 43 44 44 45 44 45 45 45 47 47 47 48 47 46 45 43 42 40 39 38 38 39 39 39 37 41 36 37 37 37 39 41 36 44 43 40 39 37 36 37 35 34 33 33 33 33 34 34 34 34 33 33 33 34 34 34 33 34 33 32 33 32 32 32 32 30 30 31 32 33 33 33 34 34 34 34 32
38 37 38 38 39 38 38 40 42 42 42 41 43 43 42 43 43 44 45 46 46 44 42 42 41 41 40 39 39 38 38 39 37 36 38 35 36 36 36 36 36 43 43 40 38 36 37 37 35 34 34 34 34 34 34 34 34 33 33 33 33 33 33 33 32 33 31 30 30 31 31 30 30 31 30 32 32 32 32 33 33 32 32 32 31
37 37 37 37 38 36 38 39 39 40 41 41 40 40 43 43 42 44 44 45 44 43 42 41 40 41 40 40 38 36 37 38 39 37 35 35 35 35 34 35 35 35 40 38 38 38 35 34 34 34 34 33 33 33 33 33 32 32 33 33 34 31 32 30 31 31 29 29 30 30 30 30 30 31 32 31 32 31 31 31 32 31 31 31 32
37 37 36 36 37 35 36 36 37 39 40 38 40 43 39 40 42 44 43 44 44 43 43 40 40 40 40 40 38 36 37 38 39 39 37 36 35 34 34 34 35 36 37 37 34 34 34 34 33 33 33 34 35 34 32 33 32 33 33 33 32 30 29 29 30 30 29 29 29 29 30 31 30 31 31 31 30 29 29 30 30 30 31 30 30
37 37 38 37 37 37 37 35 35 36 38 37 37 38 38 39 39 40 43 43 44 44 43 40 40 39 41 39 38 37 36 37 37 38 38 37 37 36 36 36 35 34 34 35 34 34 34 34 34 33 32 32 33 33 32 33 33 32 30 30 31 30 30 30 30 31 30 29 29 28 28 29 30 30 30 29 29 30 30 30 29 29 29 29 29
36 36 36 36 36 35 35 34 34 34 35 37 35 35 38 40 39 39 40 43 43 44 43 41 40 41 40 39 38 36 36 37 37 37 38 37 37 36 37 36 36 36 35 36 36 35 33 32 33 33 33 32 32 32 32 31 30 29 30 30 30 30 31 32 32 31 30 30 30 30 29 30 29 29 29 29 29 29 30 29 29 29 29 29 28
35 35 35 34 35 35 35 35 35 35 35 36 36 36 35 37 39 40 43 41 42 43 43 42 42 43 41 39 38 38 37 36 37 35 38 35 35 37 37 36 37 37 36 35 35 35 34 33 31 32 29 30 28 31 29 29 29 30 33 31 30 31 30 29 31 31 30 30 29 30 29 29 29 29 29 29 29 29 30 29 30 29 29 29 28
33 33 33 33 33 33 35 34 35 35 35 34 34 36 35 36 37 39 40 38 36 35 35 41 43 42 41 40 41 39 38 39 34 33 33 33 34 34 34 34 34 35 33 33 33 32 31 30 29 28 29 28 27 27 29 28 29 28 29 28 28 28 28 28 29 29 29 30 30 30 30 29 29 29 29 29 29 29 30 30 30 30 30 29 29
31 32 31 32 32 33 32 33 34 34 34 34 35 34 34 38 33 33 34 35 35 35 35 36 36 36 39 40 39 32 33 33 33 33 33 33 33 33 33 33 33 32 32 31 30 29 28 27 27 27 28 29 27 27 29 27 26 26 27 27 27 27 26 27 29 29 29 29 30 30 30 30 30 30 29 30 30 30 30 30 30 30 30 29 29
30 31 31 32 33 33 33 33 34 35 34 35 34 33 33 33 35 34 33 34 34 35 35 35 36 35 35 37 37 38 33 33 32 33 33 33 33 33 33 33 32 32 31 31 28 27 27 27 27 28 28 27 27 27 29 28 26 26 27 24 24 24 26 26 28 30 30 30 29 29 30 29 30 30 30 30 29 30 30 30 30 30 30 29 29
32 32 32 33 34 34 34 34 35 36 36 36 36 35 34 33 32 35 37 34 34 34 34 35 35 35 35 35 34 34 33 33 33 33 33 33 33 33 33 32 32 31 31 28 27 27 27 29 28 29 29 27 28 28 30 27 26 26 26 25 24 24 25 28 30 30 29 30 30 29 29 30 30 30 30 30 30 29 30 30 30 30 30 30 29
35 35 35 35 35 35 35 35 35 35 35 34 34 34 35 35 33 34 36 38 37 36 34 33 34 35 35 35 34 33 33 33 33 33 33 33 33 32 32 32 31 31 29 28 27 27 28 28 28 29 29 30 29 28 27 27 29 27 27 26 25 25 24 26 27 28 28 30 29 30 30 30 30 30 30 30 30 30 30 30 30 30 29 30 30
36 35 34 34 36 36 35 35 34 34 35 36 35 35 35 34 35 35 34 34 35 37 37 36 34 33 35 34 33 33 33 33 33 33 33 33 32 32 31 30 28 28 30 31 29 28 29 28 29 29 28 28 28 26 26 28 28 29 28 28 25 23 23 24 25 28 30 31 30 30 31 31 31 31 30 30 30 30 30 30 30 30 30 30 30
36 36 36 36 36 36 36 37 36 35 34 34 35 35 35 35 34 34 35 35 35 35 36 36 35 34 33 33 33 33 33 33 33 32 32 32 32 31 29 27 27 28 28 28 28 29 29 29 29 30 29 28 29 27 29 28 29 28 27 26 24 22 23 24 24 27 30 30 29 30 31 31 31 31 31 31 31 31 30 30 30 30 31 31 30
36 37 37 36 36 37 38 37 38 38 35 35 35 35 36 36 36 35 35 35 35 36 36 35 36 35 34 34 33 33 33 33 32 32 32 31 31 30 30 31 28 29 28 28 29 29 29 29 29 29 28 27 27 28 30 29 28 29 29 25 24 23 21 23 26 28 29 29 29 31 31 31 31 31 31 30 30 30 30 31 31 31 31 31 31
37 37 38 38 38 38 38 38 38 35 36 36 36 35 35 35 35 34 34 35 34 34 35 35 34 35 33 33 33 33 32 32 32 31 31 30 29 27 29 29 29 28 29 29 29 29 29 30 29 28 29 28 29 29 30 28 28 28 26 26 24 21 26 26 27 29 29 29 30 30 30 31 31 31 31 30 30 30 31 31 31 31 31 31 31
37 35 34 33 34 36 37 37 37 37 37 36 36 36 34 34 34 34 35 35 34 34 34 35 35 34 33 32 32 32 31 30 29 28 28 27 26 30 30 30 29 29 30 29 29 29 29 29 29 29 28 28 29 28 29 28 28 27 28 24 20 20 21 23 25 27 28 29 30 30 30 31 31 31 30 30 30 31 31 31 31 31 31 31 30
36 36 35 33 36 36 36 35 36 36 35 36 36 36 34 34 34 34 35 35 34 34 34 33 33 33 32 32 32 31 29 28 27 28 27 28 29 30 30 30 30 30 30 30 29 30 29 28 28 28 29 29 29 29 29 29 29 25 24 21 20 20 22 24 26 27 28 29 30 30 30 30 30 30 30 30 31 31 31 31 31 31 31 31 31
37 37 34 34 34 37 36 36 36 36 36 34 34 35 34 34 34 34 35 35 34 33 32 32 31 31 32 31 30 30 30 29 28 29 29 29 30 30 30 30 29 30 30 29 29 29 28 29 29 28 27 28 29 28 29 28 26 24 22 22 21 22 23 26 27 28 28 29 29 29 30 30 29 29 30 30 31 31 31 31 31 31 31 31 31
36 35 35 35 35 35 35 34 34 33 34 33 34 34 34 34 35 34 33 33 31 31 31 30 30 30 29 30 30 31 34 33 32 30 29 29 30 29 30 30 31 30 29 29 29 29 29 29 27 27 27 28 28 28 28 27 24 23 22 21 22 24 25 26 27 28 28 28 29 29 29 29 29 29 30 31 31 31 31 31 31 31 31 31 31
35 35 35 35 35 34 33 33 34 34 33 33 33 33 33 34 34 33 32 31 31 30 30 30 29 30 30 31 31 31 32 32 30 29 30 30 29 29 30 29 29 30 30 29 29 29 28 28 28 28 28 29 29 28 27 24 23 22 22 23 24 25 26 26 27 27 27 27 27 28 28 29 29 29 30 30 31 31 31 31 31 31 31 31 31
35 35 35 35 35 35 35 35 34 33 33 32 32 32 33 33 34 33 32 32 31 31 30 30 30 30 31 31 31 31 30 30 30 29 29 29 29 28 29 30 30 30 30 29 29 29 28 28 28 29 30 29 30 29 25 24 24 24 24 24 24 25 25 26 26 26 26 26 26 27 27 28 29 29 30 31 31 31 31 31 31 31 31 31 31
34 34 34 34 34 33 32 33 33 33 32 33 33 34 33 33 32 32 31 31 31 32 31 31 31 31 31 32 32 31 30 29 29 29 29 29 29 29 29 30 30 30 29 28 29 29 29 28 29 29 29 29 27 26 25 25 25 25 24 24 24 24 25 25 25 26 26 26 26 26 27 28 29 29 30 31 31 31 31 31 31 31 32 31 31
34 34 34 34 34 34 34 34 33 33 33 33 33 33 33 33 33 33 32 31 31 32 31 31 31 31 31 31 31 30 29 29 29 29 29 29 29 29 29 29 29 29 28 28 29 30 29 29 29 29 28 27 25 25 25 26 25 26 26 25 25 25 25 25 26 26 26 26 26 26 27 28 29 30 31 31 31 31 31 32 32 32 32 32 32
33 34 34 34 34 33 33 33 34 33 33 33 33 33 32 33 33 32 31 32 32 31 31 31 30 30 30 30 29 29 29 29 30 29 29 29 29 29 29 29 29 29 29 29 30 29 29 29 29 28 27 26 26 26 25 25 25 25 25 25 25 26 25 25 25 26 26 26 27 27 27 28 29 30 31 31 31 31 31 31 31 32 32 32 32
32 31 31 32 33 33 34 34 33 32 32 32 32 31 31 31 31 31 31 31 30 30 30 29 29 29 29 29 29 29 29 29 29 29 29 29 29 29 29 29 28 28 29 29 29 29 29 28 27 27 27 27 26 25 25 26 26 26 26 26 26 25 25 25 25 26 26 26 26 27 28 28 29 31 31 31 31 31 31 31 31 31 31 32 32
31 30 30 30 30 31 31 31 32 31 31 30 30 30 30 30 30 30 30 30 30 29 29 29 29 29 29 29 29 29 29 29 29 29 29 28 28 29 28 28 28 29 28 28 28 27 27 27 27 27 27 27 26 26 26 26 26 26 26 25 25 25 25 25 25 26 25 26 27 27 28 30 31 31 31 31 31 31 31 31 31 31 31 32 32
29 29 29 29 29 29 29 29 29 30 30 30 30 29 29 29 29 29 29 29 29 29 29 29 29 29 29 29 29 29 29 29 29 28 28 28 28 28 28 29 28 27 27 26 26 26 27 27 27 27 27 27 27 27 26 26 26 26 26 25 25 25 25 25 26 26 26 26 27 27 29 30 31 31 31 31 31 31 31 31 31 31 31 31 31
29 29 29 29 29 28 28 29 29 29 29 29 29 29 29 29 28 28 29 28 28 28 28 28 28 28 28 28 28 29 28 28 28 28 29 29 28 28 28 28 27 27 27 26 26 27 27 27 27 27 26 27 27 26 25 26 26 25 25 25 25 25 25 25 25 26 26 27 27 28 29 30 31 31 31 31 31 31 31 31 31 31 31 31 31